Regional Weather Roundup
Issued by NWS

Home | Current Version | Previous Version | Graphics & Text | Print | Product List | Glossary On
Versions: 1 2 3 4 5 6 7 8 9 10 11 12 13 14 15 16 17 18 19 20 21 22 23 24 25 26 27 28 29 30 31 32 33 34 35 36 37 38 39 40 41 42 43 44 45 46 47 48 49 50
000
ASUS43 KMKX 270021
RWRWI

WISCONSIN REGIONAL WEATHER ROUNDUP
NATIONAL WEATHER SERVICE MILWAUKEE/SULLIVAN WI
700 PM CDT SUN APR 26 2015

NOTE: "FAIR" INDICATES FEW OR NO CLOUDS BELOW 12,000 FEET WITH NO
SIGNIFICANT WEATHER AND/OR OBSTRUCTIONS TO VISIBILITY.

WIZ001-002-006>008-014>016-023>028-270100-
NORTHWEST WISCONSIN

CITY           SKY/WX    TMP DP  RH WIND       PRES   REMARKS
SUPERIOR ARPT  SUNNY     41  31  65 NE6       30.16S
6HR MIN TEMP:  41; 6HR MAX TEMP:  51;

ASHLAND        SUNNY     46  32  58 N8        30.17S
6HR MIN TEMP:  46; 6HR MAX TEMP:  53;

HAYWARD        SUNNY     53  24  32 NE14      30.13S
6HR MIN TEMP:  53; 6HR MAX TEMP:  58;

SIREN          SUNNY     59  21  23 NE13      30.11R
6HR MIN TEMP:  56; 6HR MAX TEMP:  62;

CUMBERLAND     SUNNY     55  19  24 NE15      30.10R
RICE LAKE      SUNNY     57  18  22 N14       30.11R
6HR MIN TEMP:  55; 6HR MAX TEMP:  61;

CHETEK         SUNNY     57  22  25 N13G20    30.09R
6HR MIN TEMP:  55; 6HR MAX TEMP:  61;

LADYSMITH      SUNNY     55  25  31 N13G21    30.11R
6HR MIN TEMP:  55; 6HR MAX TEMP:  61;

EAU CLAIRE     SUNNY     61  20  20 N9        30.06R
6HR MIN TEMP:  56; 6HR MAX TEMP:  64;

MENOMONIE      SUNNY     62  20  20 N13       30.07S
6HR MIN TEMP:  56; 6HR MAX TEMP:  63;

NEW RICHMOND   SUNNY     60  20  20 N10       30.09S
6HR MIN TEMP:  55; 6HR MAX TEMP:  63;

OSCEOLA        SUNNY     60  24  24 NE10      30.11S
6HR MIN TEMP:  56; 6HR MAX TEMP:  63;

$$

WIZ003>005-009-010-017-018-270100-
NORTH CENTRAL WISCONSIN

CITY           SKY/WX    TMP DP  RH WIND       PRES   REMARKS
MANITOWISH WTR CLEAR     48  26  43 NE9G17    30.11S
6HR MIN TEMP:  48; 6HR MAX TEMP:  54;

ARBOR VITAE    CLEAR     52  27  38 N12G18    30.10R
6HR MIN TEMP:  52; 6HR MAX TEMP:  57;

WOODRUFF       CLEAR     52  27  38 N12G18    30.10R
6HR MIN TEMP:  52; 6HR MAX TEMP:  57;

RHINELANDER    CLEAR     52  26  36 VRB7      30.08R
6HR MIN TEMP:  52; 6HR MAX TEMP:  57;

EAGLE RIVER    CLEAR     50  27  40 N12       30.08R
6HR MIN TEMP:  50; 6HR MAX TEMP:  56;

LAND O LAKES   CLEAR     48  30  48 N10G16    30.11R
6HR MIN TEMP:  48; 6HR MAX TEMP:  54;

PHILLIPS       CLEAR     50  27  40 N14G21    30.09S
6HR MIN TEMP:  50; 6HR MAX TEMP:  58;

TOMAHAWK       CLEAR     53  25  34 N9G18     30.07R
6HR MIN TEMP:  53; 6HR MAX TEMP:  59;

MEDFORD        CLEAR     54  25  32 N12       30.06R
6HR MIN TEMP:  53; 6HR MAX TEMP:  60;

MERRILL        CLEAR     55  24  30 NE12G21   30.05R
6HR MIN TEMP:  55; 6HR MAX TEMP:  61;

$$

WIZ029-030-035-036-043>047-270100-
CENTRAL WISCONSIN

CITY           SKY/WX    TMP DP  RH WIND       PRES   REMARKS
WAUSAU         CLEAR     58  22  24 NE9G20    30.02R
6HR MIN TEMP:  56; 6HR MAX TEMP:  62;

MOSINEE        CLEAR     57  21  24 N13       30.03S
MARSHFIELD     CLEAR     60  21  22 N13G22    30.03R
6HR MIN TEMP:  56; 6HR MAX TEMP:  63;

STEVENS POINT  CLEAR     58  21  24 N8G17     30.01S
6HR MIN TEMP:  55; 6HR MAX TEMP:  60;

WAUPACA        PTCLDY    61  25  25 NE8G16    30.01R
6HR MIN TEMP:  59; 6HR MAX TEMP:  65;

WAUTOMA        CLEAR     62  17  17 N12       30.00S
6HR MIN TEMP:  58; 6HR MAX TEMP:  64;

WISC RAPIDS    CLEAR     61  16  17 N12       30.02S
6HR MIN TEMP:  56; 6HR MAX TEMP:  64;

CAMP DOUGLAS   CLEAR     60  24  25 N9        30.02S
6HR MIN TEMP:  57; 6HR MAX TEMP:  64;

$$

WIZ011>013-019>022-031-037>040-048>050-270100-
NORTHEAST WISCONSIN

CITY           SKY/WX    TMP DP  RH WIND       PRES   REMARKS
ANTIGO         CLEAR     54  29  38 N13       30.04R
SHAWANO        CLEAR     56  29  36 E7        30.03R
6HR MIN TEMP:  56; 6HR MAX TEMP:  65;

OCONTO         CLEAR     48  33  56 E5        30.04R
6HR MIN TEMP:  48; 6HR MAX TEMP:  54;

STURGEON BAY   CLEAR     48  28  46 NE13      30.07R
6HR MIN TEMP:  50; 6HR MAX TEMP:  55;

GREEN BAY      CLEAR     53  32  44 NE14      30.03S
6HR MIN TEMP:  53; 6HR MAX TEMP:  61;

MANITOWOC      CLEAR     48  30  49 NE10G16   30.04
6HR MIN TEMP:  48; 6HR MAX TEMP:  55;

APPLETON       CLEAR     57  21  24 NE12      30.02R
CLINTONVILLE   CLEAR     55  27  33 E12       30.02R
OSHKOSH        CLEAR     57  26  30 E10       30.01R
6HR MIN TEMP:  55; 6HR MAX TEMP:  59;

$$

WIZ032>034-041-042-053>061-270100-
SOUTHWEST WISCONSIN

CITY           SKY/WX    TMP DP  RH WIND       PRES   REMARKS
LA CROSSE      CLEAR     63  26  24 N12       30.03S
6HR MIN TEMP:  59; 6HR MAX TEMP:  65;

SPARTA         CLEAR     60  20  21 N9        30.04S
6HR MIN TEMP:  57; 6HR MAX TEMP:  63;

VIROQUA        CLEAR     58  24  27 N9        30.03S
6HR MIN TEMP:  55; 6HR MAX TEMP:  60;

BOSCOBEL       CLEAR     62  22  21 N6        30.02S
6HR MIN TEMP:  57; 6HR MAX TEMP:  65;

PRAIRIE DU CHI CLEAR     60  22  22 N7        30.02S
6HR MIN TEMP:  56; 6HR MAX TEMP:  62;

PLATTEVILLE    CLEAR     58  28  31 N12       30.02R
6HR MIN TEMP:  54; 6HR MAX TEMP:  60;

$$

WIZ056-057-062-063-064-067-068-270100-
SOUTH CENTRAL WISCONSIN

CITY           SKY/WX    TMP DP  RH WIND       PRES   REMARKS
REEDSBURG      CLEAR     58  24  27 N10G16    30.01S
6HR MIN TEMP:  54; 6HR MAX TEMP:  60;

BARABOO/DELLS  CLEAR     59  20  22 NW8       30.00F
6HR MIN TEMP:  55; 6HR MAX TEMP:  61;

LONE ROCK      CLEAR     61  23  23 N9        30.01F
6HR MIN TEMP:  56; 6HR MAX TEMP:  62;

MINERAL POINT  CLEAR     59  21  23 N6        30.01F
MADISON        PTCLDY    58  26  29 NE8       30.00S
6HR MIN TEMP:  55; 6HR MAX TEMP:  61;

MIDDLETON      CLEAR     60  21  22 N7        30.01S
6HR MIN TEMP:  55; 6HR MAX TEMP:  62;

WATERTOWN      CLEAR     55  28  34 NE3       30.00S
6HR MIN TEMP:  55; 6HR MAX TEMP:  58;

MONROE         CLEAR     55  28  35 N10G16    30.00S
JANESVILLE     CLEAR     59  19  21 NE12      30.00S
$$

WIZ051-052-058>065-066-070>072-270100-
SOUTHEAST WISCONSIN

CITY           SKY/WX    TMP DP  RH WIND       PRES   REMARKS
MILWAUKEE      PTCLDY    45  26  47 N10       30.03F
6HR MIN TEMP:  45; 6HR MAX TEMP:  50;

WAUKESHA       CLEAR     48  25  40 E12       30.02F
MILWAUKEE/TIMM CLEAR     48  19  32 NE10      30.03S
RACINE         CLEAR     45  26  47 N9        30.03F
6HR MIN TEMP:  45; 6HR MAX TEMP:  51;

BURLINGTON     CLEAR     49  24  38 NE7       30.01F
6HR MIN TEMP:  49; 6HR MAX TEMP:  57;

KENOSHA        CLEAR     49  25  39 NE9       30.01F
6HR MIN TEMP:  49; 6HR MAX TEMP:  57;

FOND DU LAC    CLEAR     55  28  35 E12       30.00S
6HR MIN TEMP:  55; 6HR MAX TEMP:  59;

SHEBOYGAN      PTCLDY    46  28  49 NE14      30.04R
6HR MIN TEMP:  46; 6HR MAX TEMP:  55;

WEST BEND      CLEAR     48  23  37 E8        30.02S
JUNEAU         CLEAR     56  28  34 NE5       30.01S
6HR MIN TEMP:  54; 6HR MAX TEMP:  58;

$$

LSZ147-162-270100-
LAKE SUPERIOR

STATION/POSITION TIME  TEMP    WIND        PRES    WAVE
                       AIR SEA DIR/SP/G            HT/PER
                 (UTC) (F)     (DEG/KT/KT) (MB)    (FT/S)
W MID LAKE BUOY  2350   36 35  300/  4/  6 1023.1S   1
DEVILS ISLAND    0000   37      30/  3/  3 1022.4F
PORT WING        2340   39      10/  9/ 10 1021.3F
SAXON HARBOR     2300   41        CALM     1021.7S
$$

LMZ867-665-643>646-270100-
LAKE MICHIGAN

STATION/POSITION TIME  TEMP    WIND        PRES    WAVE



USA.gov is the U.S. government's official web portal to all federal, state and local government web resources and services.